(132049) = 2002 CG137

Discovered at Socorro on 2002-02-08 by LINEAR.

Orbit

Orbit type: Main Belt

Note: WebGL enabled browser required.

epoch2024-03-31.0
epoch JD2460400.5
perihelion date2022-05-26.31245
perihelion JD2459725.81245
argument of perihelion (°)64.90164
ascending node (°)24.17230
inclination (°)3.48319
eccentricity0.1178001
perihelion distance (AU)2.0107334
Tisserand w.r.t. Jupiter3.6
ΔV w.r.t. Earth (km/sec)8.8
semimajor axis (AU)2.2792265
mean anomaly (°)193.25258
mean daily motion (°/day)0.28643270
aphelion distance (AU)2.548
period (years)3.44
P-vector [x]0.01684723
P-vector [y]0.89407655
P-vector [z]0.44759724
Q-vector [x]-0.99954852
Q-vector [y]0.00392154
Q-vector [z]0.02978899
absolute magnitude16.63
phase slope0.15
uncertainty0
referenceMPEC 2024-F28
observations used807
oppositions15
arc length (days)8847
first opposition used1999
last opposition used2023
residual rms (arc-secs)0.73
perturbers coarse indicatorM-v
perturbers precise indicator003Ek
first observation date used1999-03-21.0
last observation date used2023-06-10.0
computer nameMPCLINUX
JD of orbit computation2456966.762381
perihelion JD uncertainty (days)7.2508E-05
argument of perihelion uncertainty (°)5.9392E-05
ascending node uncertainty (°)5.5357E-05
inclination uncertainty (°)3.9939E-06
eccentricity uncertainty 3.6199E-08
perihelion distance uncertainty (AU)8.6654E-08
Minimum Orbit Intersection Distances (in AU)
for orbit epoch: 2460400.5, reference: E2024-FB1
Mercury1.70164
Venus1.292
Earth1.03048
Mars0.41074
Jupiter2.61534
Saturn7.03838
Uranus16.199
Neptune27.6291

Observations

825 total observations over interval: 1999 03 21.43613 – 2023 06 10.217684
These data are available for download (format description).

Date (UT) J2000 RA J2000 Dec Magn Location Ref
1999 03 21.43613 13 48 07.32 -10 21 30.2 19.9 V 691 – Steward Observatory, Kitt Peak-Spacewatch MPS 52703
1999 03 21.45781 13 48 06.29 -10 21 27.0 19.8 V 691 – Steward Observatory, Kitt Peak-Spacewatch MPS 52703
1999 03 21.47958 13 48 05.28 -10 21 23.5 19.7 V 691 – Steward Observatory, Kitt Peak-Spacewatch MPS 52703
1999 04 16.25864 13 23 41.44 -08 45 11.2 19.6 V 691 – Steward Observatory, Kitt Peak-Spacewatch MPS 52703
1999 04 16.27956 13 23 40.11 -08 45 05.5 19.7 V 691 – Steward Observatory, Kitt Peak-Spacewatch MPS 52703
1999 04 16.30064 13 23 38.74 -08 44 59.6 19.9 V 691 – Steward Observatory, Kitt Peak-Spacewatch MPS 52703
2001 12 17.38945 09 37 16.93 +19 57 12.3 19.4   704 – Lincoln Laboratory ETS, New Mexico MPS 55508
2001 12 17.43641 09 37 17.55 +19 57 15.2 19.7   704 – Lincoln Laboratory ETS, New Mexico MPS 55508
2001 12 17.45332 09 37 17.84 +19 57 15.8 19.8   704 – Lincoln Laboratory ETS, New Mexico MPS 55508
2002 01 07.42902 09 34 23.99 +20 53 21.7 18.7 R 699 – Lowell Observatory-LONEOS MPS 55508
2002 01 07.44798 09 34 23.30 +20 53 27.4   699 – Lowell Observatory-LONEOS MPS 55508
2002 01 07.46697 09 34 22.67 +20 53 31.0   699 – Lowell Observatory-LONEOS MPS 55508
2002 01 07.48598 09 34 21.98 +20 53 36.4   699 – Lowell Observatory-LONEOS MPS 55508
2002 01 09.40245 09 33 16.29 +21 01 37.1 19.3   704 – Lincoln Laboratory ETS, New Mexico MPS 55508
2002 01 09.41772 09 33 15.68 +21 01 41.9 19.4   704 – Lincoln Laboratory ETS, New Mexico MPS 55508
2002 01 09.43283 09 33 15.10 +21 01 44.7 19.3   704 – Lincoln Laboratory ETS, New Mexico MPS 55508
2002 01 09.44794 09 33 14.48 +21 01 48.4 19.0   704 – Lincoln Laboratory ETS, New Mexico MPS 55508
2002 01 09.46305 09 33 13.90 +21 01 52.6 19.4   704 – Lincoln Laboratory ETS, New Mexico MPS 55508
2002 01 15.31238 09 29 05.25 +21 28 12.4 18.8   704 – Lincoln Laboratory ETS, New Mexico MPS 55508
2002 01 15.32760 09 29 04.48 +21 28 16.6 18.8   704 – Lincoln Laboratory ETS, New Mexico MPS 55508
2002 01 15.34293 09 29 03.70 +21 28 20.9 19.0   704 – Lincoln Laboratory ETS, New Mexico MPS 55508
2002 01 15.35814 09 29 02.87 +21 28 25.7 19.5   704 – Lincoln Laboratory ETS, New Mexico MPS 55508
2002 01 15.39795 09 29 01.28 +21 28 38.6 21.1   608 – Haleakala-AMOS MPS 55508
2002 01 15.40855 09 29 00.69 +21 28 41.3 20.2   608 – Haleakala-AMOS MPS 55508
2002 01 15.41977 09 29 00.12 +21 28 44.7 19.8   608 – Haleakala-AMOS MPS 55508
2002 01 20.38922 09 24 38.51 +21 52 11.1 18.7 R 699 – Lowell Observatory-LONEOS MPS 55508
2002 01 20.40879 09 24 37.39 +21 52 16.3   699 – Lowell Observatory-LONEOS MPS 55508
2002 01 20.42838 09 24 36.14 +21 52 22.0   699 – Lowell Observatory-LONEOS MPS 55508
2002 01 20.44800 09 24 34.96 +21 52 28.3   699 – Lowell Observatory-LONEOS MPS 55508
2002 02 06.24748 09 06 44.02 +23 03 21.6 18.4 R 699 – Lowell Observatory-LONEOS MPS 55508
2002 02 06.27359 09 06 42.24 +23 03 27.4   699 – Lowell Observatory-LONEOS MPS 55508
2002 02 06.29977 09 06 40.40 +23 03 32.2   699 – Lowell Observatory-LONEOS MPS 55508
2002 02 06.32592 09 06 38.63 +23 03 38.1   699 – Lowell Observatory-LONEOS MPS 55508
2002 02 08.31020 09 04 28.14 +23 09 53.2 19.1   704 – Lincoln Laboratory ETS, New Mexico MPS 50317
2002 02 08.32455 09 04 27.13 +23 09 55.3 19.4   704 – Lincoln Laboratory ETS, New Mexico MPS 50317
2002 02 08.33890 09 04 26.16 +23 09 58.5 19.4   704 – Lincoln Laboratory ETS, New Mexico MPS 50317
2002 02 08.35325 09 04 25.15 +23 10 00.7 19.3   704 – Lincoln Laboratory ETS, New Mexico MPS 50317
2002 02 08.36783 09 04 24.14 +23 10 04.2 19.4   704 – Lincoln Laboratory ETS, New Mexico MPS 50317
2002 02 11.30168 09 01 15.87 +23 18 07.6 18.8   704 – Lincoln Laboratory ETS, New Mexico MPS 50317
2002 02 11.31339 09 01 15.12 +23 18 09.6 19.2   704 – Lincoln Laboratory ETS, New Mexico MPS 50317
2002 02 11.31593 09 01 14.94 +23 18 09.6 19.0   704 – Lincoln Laboratory ETS, New Mexico MPS 50317
2002 02 11.32788 09 01 14.13 +23 18 11.5 18.8   704 – Lincoln Laboratory ETS, New Mexico MPS 50317
2002 02 11.33017 09 01 14.01 +23 18 11.8 19.0   704 – Lincoln Laboratory ETS, New Mexico MPS 50317
2002 02 11.34236 09 01 13.17 +23 18 13.6 19.4   704 – Lincoln Laboratory ETS, New Mexico MPS 50317
2002 02 11.34441 09 01 13.07 +23 18 14.1 18.7   704 – Lincoln Laboratory ETS, New Mexico MPS 50317
2002 02 11.35696 09 01 12.19 +23 18 16.2 19.3   704 – Lincoln Laboratory ETS, New Mexico MPS 50317
2002 02 11.35865 09 01 12.14 +23 18 16.1 18.9   704 – Lincoln Laboratory ETS, New Mexico MPS 50317
2002 02 11.37151 09 01 11.30 +23 18 17.4 19.4   704 – Lincoln Laboratory ETS, New Mexico MPS 50317
2002 02 12.24971 09 00 16.69 +23 20 25.7 18.6   704 – Lincoln Laboratory ETS, New Mexico MPS 50317
2002 02 12.26454 09 00 15.69 +23 20 27.3 19.7   704 – Lincoln Laboratory ETS, New Mexico MPS 50317
2002 02 12.28042 09 00 14.62 +23 20 29.6 19.5   704 – Lincoln Laboratory ETS, New Mexico MPS 50317
2002 02 12.29653 09 00 13.58 +23 20 31.5 19.3   704 – Lincoln Laboratory ETS, New Mexico MPS 50317
2002 02 12.31131 09 00 12.61 +23 20 34.1 19.3   704 – Lincoln Laboratory ETS, New Mexico MPS 50317
2002 02 14.32188 08 58 09.89 +23 24 53.6 19.4   644 – Palomar Mountain/NEAT MPS 52703
2002 02 14.34275 08 58 08.56 +23 24 56.3 20.5   644 – Palomar Mountain/NEAT MPS 52703
2002 02 14.36382 08 58 07.25 +23 24 58.5 19.2   644 – Palomar Mountain/NEAT MPS 52703
2002 02 15.24514 08 57 15.21 +23 26 37.8 18.9   704 – Lincoln Laboratory ETS, New Mexico MPS 52703
2002 02 15.25981 08 57 14.34 +23 26 39.7 19.3   704 – Lincoln Laboratory ETS, New Mexico MPS 52703
2002 02 15.27440 08 57 13.42 +23 26 41.4 19.2   704 – Lincoln Laboratory ETS, New Mexico MPS 52703
2002 02 15.28930 08 57 12.50 +23 26 42.2 19.4   704 – Lincoln Laboratory ETS, New Mexico MPS 52703
2002 02 15.30369 08 57 11.59 +23 26 44.3 19.3   704 – Lincoln Laboratory ETS, New Mexico MPS 52703
2002 03 04.24279 08 44 38.96 +23 31 13.9 19.8   644 – Palomar Mountain/NEAT MPS 55508
2002 03 04.26365 08 44 38.25 +23 31 12.2 19.3   644 – Palomar Mountain/NEAT MPS 55508
2002 03 04.28567 08 44 37.58 +23 31 10.7 20.0   644 – Palomar Mountain/NEAT MPS 55508
2002 03 05.16344 08 44 14.40 +23 30 04.1 19.4 R 699 – Lowell Observatory-LONEOS MPS 55508
2002 03 05.17982 08 44 14.07 +23 30 00.7   699 – Lowell Observatory-LONEOS MPS 55508
2002 03 05.19624 08 44 13.46 +23 30 00.4   699 – Lowell Observatory-LONEOS MPS 55508
2002 03 05.21268 08 44 13.06 +23 29 58.1   699 – Lowell Observatory-LONEOS MPS 55508
2002 03 06.18028 08 43 49.12 +23 28 34.7 19.7   704 – Lincoln Laboratory ETS, New Mexico MPS 55508
2002 03 06.22114 08 43 48.04 +23 28 31.8 20.4   704 – Lincoln Laboratory ETS, New Mexico MPS 55508
2002 03 06.23482 08 43 47.69 +23 28 30.6 19.9   704 – Lincoln Laboratory ETS, New Mexico MPS 55508
2002 03 12.11712 08 42 08.28 +23 16 58.9 19.7 V 691 – Steward Observatory, Kitt Peak-Spacewatch MPS 55508
2002 03 12.12754 08 42 08.20 +23 16 56.6 19.4   644 – Palomar Mountain/NEAT MPS 55508
2002 03 12.14161 08 42 07.95 +23 16 55.4 19.8 V 691 – Steward Observatory, Kitt Peak-Spacewatch MPS 55508
2002 03 12.14833 08 42 07.95 +23 16 53.7 19.6   644 – Palomar Mountain/NEAT MPS 55508
2002 03 12.16462 08 42 07.67 +23 16 51.9 20.1 V 691 – Steward Observatory, Kitt Peak-Spacewatch MPS 55508
2002 03 12.16921 08 42 07.66 +23 16 50.8 19.5   644 – Palomar Mountain/NEAT MPS 55508
2002 03 31.13296 08 45 14.39 +22 09 03.5 20.2   644 – Palomar Mountain/NEAT MPS 55508
2002 03 31.14359 08 45 14.65 +22 09 00.5 20.2   644 – Palomar Mountain/NEAT MPS 55508
2002 03 31.19587 08 45 16.05 +22 08 46.1 20.4   644 – Palomar Mountain/NEAT MPS 55508
2004 10 04.44854 03 10 52.94 +18 43 21.4 19.6 V 691 – Steward Observatory, Kitt Peak-Spacewatch MPS 173562
2004 10 04.47742 03 10 52.27 +18 43 23.3 19.6 V 691 – Steward Observatory, Kitt Peak-Spacewatch MPS 173562
2004 10 04.50533 03 10 51.62 +18 43 25.2 19.5 V 691 – Steward Observatory, Kitt Peak-Spacewatch MPS 173562
2004 10 14.24121 03 05 52.97 +18 48 26.8 18.8   704 – Lincoln Laboratory ETS, New Mexico MPS 117575
2004 10 14.25058 03 05 52.60 +18 48 26.2 19.8   704 – Lincoln Laboratory ETS, New Mexico MPS 117575
2004 10 14.26939 03 05 51.75 +18 48 26.8 19.5   704 – Lincoln Laboratory ETS, New Mexico MPS 117575
